This is the latest recevied weather packets stored in our database for station/object F8COD-13. If no packets are shown the sender has not sent any weather packets the latest 10 day(s).
| Time | Temp. | Humidity | Pressure | Rain* | Wind** | Luminosity | Snow |
|---|---|---|---|---|---|---|---|
| 1777421436 | 15° C | 63% | 1015.6 hPa | 0 mm | - | - | - |
| 1777414818 | 15.56° C | 63% | 1015.2 hPa | 0 mm | - | - | - |
| 1777408816 | 16.67° C | 59% | 1015 hPa | 0 mm | - | - | - |
| 1777408216 | 16.67° C | 58% | 1015 hPa | 0 mm | - | - | - |
| 1777398616 | 20° C | 49% | 1014.6 hPa | 0 mm | - | - | - |
| 1777396818 | 20° C | 49% | 1014.7 hPa | 0 mm | - | - | - |
| 1777395038 | 20.56° C | 49% | 1014.7 hPa | 0 mm | - | - | - |
| 1777394418 | 20.56° C | 47% | 1014.7 hPa | 0 mm | - | - | - |
| 1777384818 | 21.11° C | 43% | 1015.4 hPa | 0 mm | - | - | - |
| 1777383617 | 21.11° C | 44% | 1015.7 hPa | 0 mm | - | - | - |
| 1777380017 | 20° C | 44% | 1016 hPa | 0 mm | - | - | - |
| 1777372217 | 16.67° C | 56% | 1016.7 hPa | 0 mm | - | - | - |
| 1777371617 | 16.11° C | 57% | 1016.9 hPa | 0 mm | - | - | - |
| 1777368017 | 14.44° C | 61% | 1017.1 hPa | 0 mm | - | - | - |
| 1777367417 | 13.89° C | 64% | 1017.1 hPa | 0 mm | - | - | - |
| 1777366817 | 13.33° C | 64% | 1017.1 hPa | 0 mm | - | - | - |
| 1777366217 | 12.78° C | 66% | 1017 hPa | 0 mm | - | - | - |
| 1777363217 | 12.78° C | 67% | 1017.1 hPa | 0 mm | - | - | - |
| 1777361417 | 12.22° C | 70% | 1017.1 hPa | 0 mm | - | - | - |
| 1777359017 | 11.67° C | 71% | 1017.1 hPa | 0 mm | - | - | - |
| 1777357817 | 11.67° C | 72% | 1017 hPa | 0 mm | - | - | - |
| 1777345217 | 11.11° C | 72% | 1017.4 hPa | 0 mm | - | - | - |
| 1777344617 | 11.11° C | 71% | 1017.4 hPa | 0 mm | - | - | - |
| 1777340416 | 12.78° C | 65% | 1017.8 hPa | 0 mm | - | - | - |
| 1777339837 | 12.78° C | 65% | 1017.7 hPa | 0 mm | - | - | - |
* Rain latest hour (hover to see other rain measurements)
** Current wind speed in m/s (hover to see current wind gust speed)